F/V Cote D'ambre — FPEY — position and weather

sailwx.info

Track history (hours):
 
Tides and Currents Weather Stations Pressure Air Temp Water Temp Dewpoint Dewpoint Depression Visibility Wind Speed Wind Dir Waves Ship Positions

F/V Cote D'ambre

Last reported at 2014-Jul-24 16:13 UTC. Time now 2014-Jul-24 19:19 UTC.
Position N 47°18' W 003°21'.

Length 16 m; draft 4 m.

Type: Fishing. MMSI: 227128800.

Date/timePositionNaut miles runAvg speedWind from/ knotsBaromVisibWave heightAir tempDewpointWater temp
2014-Jul-24 16:13N 47°18' W 003°21'1 1.0
2014-Jul-24 15:33N 47°19' W 003°22'0 0.2
2014-Jul-24 14:33N 47°19' W 003°22'0 0.1
2014-Jul-24 13:33N 47°19' W 003°22'5 4.5
2014-Jul-24 12:33N 47°23' W 003°22'9 8.9
2014-Jul-24 11:33N 47°32' W 003°22'9 8.9
2014-Jul-24 10:33N 47°41' W 003°22'3 2.5
2014-Jul-24 09:32N 47°44' W 003°22'0 0.5
2014-Jul-24 08:33N 47°43' W 003°22'8 8.5
2014-Jul-24 07:33N 47°35' W 003°23'9 8.7
2014-Jul-24 06:33N 47°26' W 003°22'7 7.1
2014-Jul-24 05:32N 47°19' W 003°22'7 3.4
2014-Jul-24 03:33N 47°26' W 003°24'9 8.6
2014-Jul-24 02:33N 47°34' W 003°23'9 8.8
2014-Jul-24 01:33N 47°43' W 003°22'2 1.9
2014-Jul-24 00:33N 47°41' W 003°22'9 8.6
2014-Jul-23 23:33N 47°32' W 003°23'9 8.7
2014-Jul-23 22:33N 47°24' W 003°23'22 5.4
2014-Jul-23 18:33N 47°02' W 003°24'22 1.4
2014-Jul-23 03:33N 47°24' W 003°23'9 9.0
2014-Jul-23 02:34N 47°32' W 003°23'9 9.0
2014-Jul-23 01:34N 47°41' W 003°22'1 0.8
2014-Jul-23 00:33N 47°42' W 003°22'9 8.5
2014-Jul-22 23:33N 47°34' W 003°22'9 8.6
2014-Jul-22 22:33N 47°25' W 003°22'9 8.4
2014-Jul-22 21:32N 47°17' W 003°22'14 3.1
2014-Jul-22 17:05N 47°03' W 003°24'2 2.9
2014-Jul-22 16:28N 47°01' W 003°26'3 3.3
2014-Jul-22 15:31N 46°58' W 003°25'25 2.2
2014-Jul-22 04:15N 47°24' W 003°23'6 8.6
2014-Jul-22 03:33N 47°30' W 003°22'9 9.1
2014-Jul-22 02:33N 47°39' W 003°22'5 5.0
2014-Jul-22 01:33N 47°44' W 003°22'5 5.1
2014-Jul-22 00:33N 47°39' W 003°22'8 7.9
2014-Jul-21 23:33N 47°31' W 003°23'9 8.0
2014-Jul-21 22:26N 47°22' W 003°25'2 0.1
2014-Jul-21 04:32N 47°23' W 003°22'8 8.1
2014-Jul-21 03:34N 47°31' W 003°22'9 8.6
2014-Jul-21 02:34N 47°39' W 003°22'4 0.1
2014-Jul-19 03:32N 47°44' W 003°22'0 0.2
2014-Jul-19 02:31N 47°44' W 003°22'0 0.0
2014-Jul-19 01:31N 47°44' W 003°22'2 2.4
2014-Jul-19 00:33N 47°41' W 003°22'8 7.9
2014-Jul-18 23:33N 47°34' W 003°23'8 7.8
2014-Jul-18 22:33N 47°26' W 003°25'8 8.2
2014-Jul-18 21:33N 47°18' W 003°28'7 6.0
2014-Jul-18 20:26N 47°11' W 003°30'4 0.2
2014-Jul-17 22:20N 47°11' W 003°24'2 3.0
2014-Jul-17 21:33N 47°09' W 003°24'5 1.4
2014-Jul-17 18:08N 47°04' W 003°26'19 4.1
2014-Jul-17 13:32N 47°22' W 003°24'8 8.3
2014-Jul-17 12:33N 47°31' W 003°23'9 8.6
2014-Jul-17 11:33N 47°39' W 003°22'5 0.9
2014-Jul-17 06:10N 47°44' W 003°22'0 0.0
2014-Jul-17 05:31N 47°44' W 003°22'0 0.0
2014-Jul-17 04:31N 47°44' W 003°22'0 0.0
2014-Jul-17 03:31N 47°44' W 003°22'0 0.0
2014-Jul-17 02:31N 47°44' W 003°22'0 0.2
2014-Jul-17 01:33N 47°44' W 003°22'7 6.7
2014-Jul-17 00:33N 47°37' W 003°22'8 8.3
2014-Jul-16 23:33N 47°29' W 003°23'8 8.1
2014-Jul-16 22:31N 47°20' W 003°23'16 4.7
2014-Jul-16 19:04N 47°05' W 003°29'3 1.0
2014-Jul-16 16:25N 47°03' W 003°32'22 1.7
2014-Jul-16 03:32N 47°24' W 003°26'8 8.4
2014-Jul-16 02:33N 47°32' W 003°23'8 8.5
2014-Jul-16 01:33N 47°41' W 003°22'3 2.9
2014-Jul-16 00:33N 47°44' W 003°22'8 8.1
2014-Jul-15 23:33N 47°36' W 003°22'8 8.2
2014-Jul-15 22:33N 47°28' W 003°25'8 8.4
2014-Jul-15 21:33N 47°20' W 003°29'7 0.4
2014-Jul-15 03:20N 47°27' W 003°25'6 8.2
2014-Jul-15 02:33N 47°33' W 003°23'8 8.2
2014-Jul-15 01:34N 47°41' W 003°22'3 2.7
2014-Jul-15 00:33N 47°44' W 003°22'9 8.5
2014-Jul-14 23:33N 47°35' W 003°22'9 8.6
2014-Jul-14 22:33N 47°27' W 003°26'  
Track history (hours):
 
Tides and Currents Weather Stations Pressure Air Temp Water Temp Dewpoint Dewpoint Depression Visibility Wind Speed Wind Dir Waves Ship Positions

F/V Cote D'ambre

Last reported at 2014-Jul-24 16:13 UTC. Time now 2014-Jul-24 19:19 UTC.
Position N 47°18' W 003°21'.

Length 16 m; draft 4 m.

Type: Fishing. MMSI: 227128800.

Date/timePositionNaut miles runAvg speedWind from/ knotsBaromVisibWave heightAir tempDewpointWater temp
2014-Jul-24 16:13N 47°18' W 003°21'1 1.0
2014-Jul-24 15:33N 47°19' W 003°22'0 0.2
2014-Jul-24 14:33N 47°19' W 003°22'0 0.1
2014-Jul-24 13:33N 47°19' W 003°22'5 4.5
2014-Jul-24 12:33N 47°23' W 003°22'9 8.9
2014-Jul-24 11:33N 47°32' W 003°22'9 8.9
2014-Jul-24 10:33N 47°41' W 003°22'3 2.5
2014-Jul-24 09:32N 47°44' W 003°22'0 0.5
2014-Jul-24 08:33N 47°43' W 003°22'8 8.5
2014-Jul-24 07:33N 47°35' W 003°23'9 8.7
2014-Jul-24 06:33N 47°26' W 003°22'7 7.1
2014-Jul-24 05:32N 47°19' W 003°22'7 3.4
2014-Jul-24 03:33N 47°26' W 003°24'9 8.6
2014-Jul-24 02:33N 47°34' W 003°23'9 8.8
2014-Jul-24 01:33N 47°43' W 003°22'2 1.9
2014-Jul-24 00:33N 47°41' W 003°22'9 8.6
2014-Jul-23 23:33N 47°32' W 003°23'9 8.7
2014-Jul-23 22:33N 47°24' W 003°23'22 5.4
2014-Jul-23 18:33N 47°02' W 003°24'22 1.4
2014-Jul-23 03:33N 47°24' W 003°23'9 9.0
2014-Jul-23 02:34N 47°32' W 003°23'9 9.0
2014-Jul-23 01:34N 47°41' W 003°22'1 0.8
2014-Jul-23 00:33N 47°42' W 003°22'9 8.5
2014-Jul-22 23:33N 47°34' W 003°22'9 8.6
2014-Jul-22 22:33N 47°25' W 003°22'9 8.4
2014-Jul-22 21:32N 47°17' W 003°22'14 3.1
2014-Jul-22 17:05N 47°03' W 003°24'2 2.9
2014-Jul-22 16:28N 47°01' W 003°26'3 3.3
2014-Jul-22 15:31N 46°58' W 003°25'25 2.2
2014-Jul-22 04:15N 47°24' W 003°23'6 8.6
2014-Jul-22 03:33N 47°30' W 003°22'9 9.1
2014-Jul-22 02:33N 47°39' W 003°22'5 5.0
2014-Jul-22 01:33N 47°44' W 003°22'5 5.1
2014-Jul-22 00:33N 47°39' W 003°22'8 7.9
2014-Jul-21 23:33N 47°31' W 003°23'9 8.0
2014-Jul-21 22:26N 47°22' W 003°25'2 0.1
2014-Jul-21 04:32N 47°23' W 003°22'8 8.1
2014-Jul-21 03:34N 47°31' W 003°22'9 8.6
2014-Jul-21 02:34N 47°39' W 003°22'4 0.1
2014-Jul-19 03:32N 47°44' W 003°22'0 0.2
2014-Jul-19 02:31N 47°44' W 003°22'0 0.0
2014-Jul-19 01:31N 47°44' W 003°22'2 2.4
2014-Jul-19 00:33N 47°41' W 003°22'8 7.9
2014-Jul-18 23:33N 47°34' W 003°23'8 7.8
2014-Jul-18 22:33N 47°26' W 003°25'8 8.2
2014-Jul-18 21:33N 47°18' W 003°28'7 6.0
2014-Jul-18 20:26N 47°11' W 003°30'4 0.2
2014-Jul-17 22:20N 47°11' W 003°24'2 3.0
2014-Jul-17 21:33N 47°09' W 003°24'5 1.4
2014-Jul-17 18:08N 47°04' W 003°26'19 4.1
2014-Jul-17 13:32N 47°22' W 003°24'8 8.3
2014-Jul-17 12:33N 47°31' W 003°23'9 8.6
2014-Jul-17 11:33N 47°39' W 003°22'5 0.9
2014-Jul-17 06:10N 47°44' W 003°22'0 0.0
2014-Jul-17 05:31N 47°44' W 003°22'0 0.0
2014-Jul-17 04:31N 47°44' W 003°22'0 0.0
2014-Jul-17 03:31N 47°44' W 003°22'0 0.0
2014-Jul-17 02:31N 47°44' W 003°22'0 0.2
2014-Jul-17 01:33N 47°44' W 003°22'7 6.7
2014-Jul-17 00:33N 47°37' W 003°22'8 8.3
2014-Jul-16 23:33N 47°29' W 003°23'8 8.1
2014-Jul-16 22:31N 47°20' W 003°23'16 4.7
2014-Jul-16 19:04N 47°05' W 003°29'3 1.0
2014-Jul-16 16:25N 47°03' W 003°32'22 1.7
2014-Jul-16 03:32N 47°24' W 003°26'8 8.4
2014-Jul-16 02:33N 47°32' W 003°23'8 8.5
2014-Jul-16 01:33N 47°41' W 003°22'3 2.9
2014-Jul-16 00:33N 47°44' W 003°22'8 8.1
2014-Jul-15 23:33N 47°36' W 003°22'8 8.2
2014-Jul-15 22:33N 47°28' W 003°25'8 8.4
2014-Jul-15 21:33N 47°20' W 003°29'7 0.4
2014-Jul-15 03:20N 47°27' W 003°25'6 8.2
2014-Jul-15 02:33N 47°33' W 003°23'8 8.2
2014-Jul-15 01:34N 47°41' W 003°22'3 2.7
2014-Jul-15 00:33N 47°44' W 003°22'9 8.5
2014-Jul-14 23:33N 47°35' W 003°22'9 8.6
2014-Jul-14 22:33N 47°27' W 003°26'  

Dump ship's entire track history